sat.trackr.live / text

‹ back to catalog

2025-292G

NORAD 66999 · 2025-292G

PAYLOAD ACTIVE UNKNOWN

§ Identity

Operator
Country
PRC
Launch date
2025-12-10
Launch site
JSC
Launch vehicle
Mass (kg)
RCS (m²)

External: N2YO · Heavens-Above · Gunter

§ Orbital elements

Epoch: 2026-09-20T11:08:34.997280Z

Period
95.53 min
Inclination
97.6287°
Eccentricity
0.0016093
Mean motion
15.07360708 rev/d
Perigee alt
533.1 km
Apogee alt
555.4 km
Semi-major
6,922.4 km
B*
1.6644e-4
RAAN
338.6244°
Arg perigee
52.3617°
Mean anomaly
307.9068°
Rev number
4,280

§ Raw data

2025-292G1 66999U 25292G   26263.46429395  .00002460  00000+0  16644-3 0  99952 66999  97.6287 338.6244 0016093  52.3617 307.9068 15.07360708 42807

JSON: /api/v1/satellites/66999 · /tle

For live sub-satellite position, see the globe view (requires WebGL).

§ Visibility from observer

Set your observer location to see the next 7 days of passes ≥ 10°. The values pass through the URL so the page stays shareable.

No JS? Fill the form by hand. The geolocation button needs JavaScript.